Location: Errabaliem
(16.8108°N, 80.4255°E)
Time: 12:07:18
(UTC+00:00)

Cosmos 1140 Rocket - Pass Details

Date: 05 August 2024
Orbit: 741 x 764 km, 74.1° (Epoch: 11 September)

Event Time Altitude Azimuth Distance (km) Brightness Sun altitude
Rises 15:13:28 0° 340° (NNW) 3,198 7.4 -28.2°
Reaches altitude 10° 15:15:51 10° 336° (NNW) 2,276 6.6 -28.7°
Enters shadow 15:20:48 57° 263° (W) 887 3.9 -29.7°
